GSAT0232 (GALILEO 32) (61182 NORAD) Tracking and Keplerian Element Data

This shows tracking and keplerian element data for the satellite.

Feedback or suggestion? Click here.




ElementValue
Catalog61182
NameGSAT0232 (GALILEO 32)
Epoch Orbit38
Epoch Day284.26144262
Epoch Year2024
RAAN238.1862
Inclination55.406
Eccentricity0.0016996
Argument of Perigee273.4839
Mean Anonmoly86.3061
Mean Motion1.73176966
Decay Rate2.4E-07
L11 61182U 24167A 24284.26144262 .00000024 00000+0 00000+0 0 9999
L22 61182 55.4060 238.1862 0016996 273.4839 86.3061 1.73176966 388



Live tracking and technical data element details for GSAT0232 (GALILEO 32) (NORAD 61182). GSAT0232 (GALILEO 32) can be tracked NOW for your location showing map with azimuth and elevation plus other details from your city location.







IsCatalogInMostPopularTable: catalog: 61182, numindb: 23
Update: records affected: 1



GetName: 61182 GSAT0232 (GALILEO 32)

Hit Count: updated at: Wed, 04 Dec 2024 10:03:18 GMT